Flag for U.S.A. Weather past 2 weeks in New York, New York, U.S.A.

Now
22 °F

Clear.


Feels Like: 17 °F
Forecast: 19 / 31 °F
Wind: 3 mph from North

Location: New York City - Central Park

Current Time: Feb 26, 2015 at 11:25:14 PM

Latest Report: Feb 26, 2015 at 10:51 PM


Visibility: 10 mi

Pressure: 30.13 "Hg

Humidity: 57%

Dew point: 9 °F

Location of New YorkLocation

Historic Weather in New York — Graph

°F

New York temperature yesterday

Maximum temperature yesterday: 37 °F (at 2:51 PM)
Minimum temperature yesterday: 20 °F (at 4:51 AM)
Average temperature yesterday: 30 °F

Past Weeks' High & Low Weather Summary

 TemperatureHumidityPressure
High43 °F (Feb 22, 2:51 PM)88% (Feb 21, 11:51 PM)30.51 "Hg (Feb 21, 11:51 PM)
Low2 °F (Feb 20, 5:51 AM)23% (Feb 16, 2:51 PM)29.44 "Hg (Feb 14, 11:51 PM)
Average22 °F50%30.01 "Hg
* Reported Feb 11 9:51 PM — Feb 26 9:51 PM, New York, Weather by CustomWeather, © 2015

Note: Actual official high and low records may vary slightly from our data, if they occured in-between our weather recording intervals... More about our weather records

Advertising

New York weather history for previous 24 hours

 ConditionsComfort  
Time TempWeatherWind HumidityBarometerVisibility
9:51 PM
Thu, Feb 26
23 °FClear.9 mph57%30.13 "Hg10 mi
8:51 PM24 °FClear.3 mph57%30.10 "Hg10 mi
7:51 PM25 °FOvercast.6 mph55%30.06 "Hg10 mi
6:51 PM26 °FOvercast.5 mph52%30.04 "Hg10 mi
5:51 PM26 °FOvercast.8 mph55%30.01 "Hg10 mi
4:51 PM26 °FOvercast.7 mph55%29.99 "Hg10 mi
3:51 PM26 °FOvercast.8 mph57%29.97 "Hg10 mi
2:51 PM26 °FOvercast.6 mph63%29.94 "Hg10 mi
1:51 PM25 °FOvercast.8 mph63%29.91 "Hg10 mi
12:51 PM26 °FBroken clouds.7 mph63%29.93 "Hg9 mi
11:51 AM25 °FOvercast.6 mph58%29.98 "Hg3 mi
10:51 AM23 °FOvercast.6 mph48%30.01 "Hg10 mi
9:51 AM23 °FOvercast.8 mph48%30.01 "Hg10 mi
8:51 AM22 °FOvercast.12 mph46%30.00 "Hg10 mi
7:51 AM22 °FOvercast.9 mph46%30.01 "Hg10 mi
6:51 AM22 °FOvercast.8 mph44%30.01 "Hg10 mi
5:51 AM22 °FPassing clouds.10 mph42%30.00 "Hg10 mi
4:51 AM23 °FClear.10 mph40%30.00 "Hg10 mi
3:51 AM24 °FClear.8 mph36%30.01 "Hg10 mi
2:51 AM27 °FClear.8 mph35%30.01 "Hg10 mi
1:51 AM29 °FClear.8 mph36%30.00 "Hg10 mi
12:51 AM31 °FClear.7 mph33%30.03 "Hg10 mi
11:51 PM
Wed, Feb 25
32 °FClear.3 mph30%29.99 "Hg10 mi
Weather by CustomWeather, © 2015

See weather overviewHow to use our weather pages